This is the latest recevied weather packets stored in our database for station/object NR0A-4. If no packets are shown the sender has not sent any weather packets the latest 10 day(s).
| Time | Temp. | Humidity | Pressure | Rain* | Wind** | Luminosity | Snow |
|---|---|---|---|---|---|---|---|
| 1777554004 | 6.11° C | 80% | 1018.8 hPa | 0 mm | - | 193 W/m² | - |
| 1777553704 | 5.56° C | 80% | 1018.7 hPa | 0 mm | - | 72 W/m² | - |
| 1777553404 | 5.56° C | 80% | 1018.5 hPa | 0 mm | - | 60 W/m² | - |
| 1777553104 | 5.56° C | 81% | 1018.4 hPa | 0 mm | - | 54 W/m² | - |
| 1777552804 | 5.56° C | 83% | 1018.3 hPa | 0 mm | - | 49 W/m² | - |
| 1777552504 | 5° C | 85% | 1018.3 hPa | 0 mm | - | 47 W/m² | - |
| 1777552204 | 5° C | 86% | 1018.1 hPa | 0 mm | - | 46 W/m² | - |
| 1777551904 | 5° C | 87% | 1018 hPa | 0 mm | - | 42 W/m² | - |
| 1777551604 | 5° C | 87% | 1017.9 hPa | 0 mm | - | 37 W/m² | - |
| 1777551304 | 5° C | 87% | 1017.9 hPa | 0 mm | - | 37 W/m² | - |
| 1777551005 | 5° C | 87% | 1017.8 hPa | 0 mm | - | 37 W/m² | - |
| 1777550704 | 4.44° C | 87% | 1017.7 hPa | 0 mm | - | 53 W/m² | - |
| 1777550404 | 4.44° C | 87% | 1017.7 hPa | 0 mm | - | 32 W/m² | - |
| 1777550104 | 4.44° C | 87% | 1017.5 hPa | 0 mm | - | 23 W/m² | - |
| 1777549804 | 4.44° C | 86% | 1017.5 hPa | 0 mm | - | 19 W/m² | - |
| 1777549504 | 4.44° C | 86% | 1017.5 hPa | 0 mm | - | 16 W/m² | - |
| 1777549205 | 4.44° C | 86% | 1017.3 hPa | 0 mm | - | 12 W/m² | - |
| 1777548904 | 4.44° C | 87% | 1017.2 hPa | 0 mm | - | 9 W/m² | - |
| 1777548604 | 3.89° C | 87% | 1017.2 hPa | 0 mm | - | 7 W/m² | - |
| 1777548304 | 3.89° C | 87% | 1017.2 hPa | 0 mm | - | 0 W/m² | - |
| 1777548004 | 3.89° C | 86% | 1017.1 hPa | 0 mm | - | 0 W/m² | - |
| 1777547704 | 3.89° C | 85% | 1017.1 hPa | 0 mm | - | 0 W/m² | - |
| 1777547404 | 3.89° C | 85% | 1017.2 hPa | 0 mm | - | 0 W/m² | - |
| 1777547104 | 3.89° C | 85% | 1017.4 hPa | 0 mm | - | 0 W/m² | - |
| 1777546804 | 4.44° C | 84% | 1017.1 hPa | 0 mm | - | 0 W/m² | - |
* Rain latest hour (hover to see other rain measurements)
** Current wind speed in m/s (hover to see current wind gust speed)